Miscellaneous Local Product
Issued by NWS Hastings, NE

Home | Current Version | Previous Version | Graphics & Text | Print | Product List | Glossary Off
Versions: 1 2 3 4 5 6 7 8 9 10 11 12 13 14 15 16 17 18 19 20 21 22 23 24 25 26 27 28 29 30 31 32 33 34 35 36 37 38 39 40 41 42 43 44 45 46 47 48 49 50

000
AXUS43 KGID 251702
MISGRI

GID CWA HOURLY WEATHER ROUNDUP
NATIONAL WEATHER SERVICE HASTINGS NE
1200 PM CDT FRI JUL 25 2014

NOTE: "FAIR" INDICATES FEW OR NO CLOUDS BELOW 12,000 FEET WITH NO
SIGNIFICANT WEATHER AND/OR OBSTRUCTIONS TO VISIBILITY.

...SOUTH CENTRAL NEBRASKA...

CITY           SKY/WX    TMP DP  RH WIND       PRES   REMARKS
GRAND ISLAND   SUNNY     90  66  45 NW12      29.79R HX  92
HASTINGS       SUNNY     89  61  38 NW12      29.80S
KEARNEY        SUNNY     90  63  40 NW12      29.83R HX  90
ORD            SUNNY     84  67  56 N13       29.80S
YORK           SUNNY     88  72  58 NW14      29.77S HX  94
AURORA         SUNNY     87  68  52 W8        29.78S HX  91
LEXINGTON      SUNNY     86  67  53 N13       29.86R
HOLDREGE       MOSUNNY   87  64  46 NW6       29.83S
HEBRON         SUNNY     92  64  39 W13       29.78R HX  93

...NEBRASKA PANHANDLE...

CITY           SKY/WX    TMP DP  RH WIND       PRES   REMARKS
CHADRON        SUNNY     79  32  18 NE12      30.00F
ALLIANCE       PTSUNNY   78  45  30 N14       30.01F
SCOTTSBLUFF    PTSUNNY   78  42  27 E8        30.04R
SIDNEY         MOSUNNY   81  50  33 N10       30.05F

...WESTERN AND NORTH CENTRAL NEBRASKA...

CITY           SKY/WX    TMP DP  RH WIND       PRES   REMARKS
VALENTINE      MOSUNNY   79  64  60 N16       29.91R
AINSWORTH      MOSUNNY   79  67  66 NW16G22   29.89R
ONEILL         SUNNY     85  66  53 N9        29.81R
BROKEN BOW     MOSUNNY   84  69  60 N15G21    29.86R
IMPERIAL       MOSUNNY   83  61  47 N13       29.95S
NORTH PLATTE   MOSUNNY   84  63  49 N10       29.90R
MCCOOK         MOSUNNY   87  62  43 N10       29.88R

...EASTERN NEBRASKA...

CITY           SKY/WX    TMP DP  RH WIND       PRES   REMARKS
NORFOLK        MOSUNNY   86  71  60 W8        29.75S HX  91
COLUMBUS       SUNNY     88  70  55 W7        29.74S HX  92
ALBION         SUNNY     85  68  56 NW9       29.77S
OMAHA EPPLEY   SUNNY     84  69  60 SE18      29.75F
OFFUTT AFB     SUNNY     85  75  70 SE13      29.76F HX  93
MILLARD        SUNNY     85  73  67 SE12      29.75F HX  91
LINCOLN        SUNNY     92  69  47 SW10      29.75F HX  97
NEBRASKA CITY  SUNNY     90  70  51 SW8G16    29.77F HX  95
BEATRICE       SUNNY     92  72  51 W14       29.76F HX  99
FALLS CITY     MOSUNNY   93  72  50 S17       29.78F HX 101

...NORTHERN KANSAS...

CITY           SKY/WX    TMP DP  RH WIND       PRES   REMARKS
GOODLAND       MOSUNNY   89  56  32 N16G23    29.96S
HILL CITY      PTSUNNY   91  62  37 S3        29.81F HX  91
NORTON         SUNNY     93  50  22 NW12      29.83S HX  90
PHILLIPSBURG   SUNNY     93  57  29 NW7       29.80S HX  92
SMITH CENTER   SUNNY     93  61  33 SW6       29.80R HX  93
HAYS           PTSUNNY   81  61  50 W10       29.83S
RUSSELL        PTSUNNY   94  64  37 SW20      29.81R HX  95
CONCORDIA      MOSUNNY   94  66  39 SW15G23   29.79R HX  97
SALINA         MOSUNNY   97  66  36 SW21      29.79F HX 100
TOPEKA         MOSUNNY   91  70  49 S14       29.82F HX  96



USA.gov is the U.S. government's official web portal to all federal, state and local government web resources and services.